| time (UTC) | temp F | wind direction | speed MPH | gust MPH | rain 1hr in | rain 24hr in | rain mn in | humidity % | barometer mb |
| 20260509043046 | 50 | 224 | 1.0 | 3.0 | 0.00 | 0.00 | 0.00 | 53 | 1005.4 |
| 20260509041535 | 51 | 224 | 1.0 | 3.0 | 0.00 | 0.00 | 0.00 | 50 | 1005.5 |
| 20260509040039 | 52 | 224 | 2.0 | 3.0 | 0.00 | 0.00 | 0.00 | 51 | 1005.7 |
| 20260509034546 | 52 | 224 | 1.0 | 3.0 | 0.00 | 0.00 | 0.00 | 50 | 1005.8 |
| 20260509033031 | 53 | 224 | 1.0 | 3.0 | 0.00 | 0.00 | 0.00 | 46 | 1005.8 |
| 20260509031531 | 53 | 224 | 1.0 | 3.0 | 0.00 | 0.00 | 0.00 | 47 | 1006.1 |
| 20260509030031 | 54 | 224 | 2.0 | 4.0 | 0.00 | 0.00 | 0.00 | 46 | 1006.2 |
| 20260509024534 | 55 | 224 | 1.0 | 3.0 | 0.00 | 0.00 | 0.00 | 43 | 1006.3 |
| 20260509023128 | 56 | 224 | 2.0 | 3.0 | 0.00 | 0.00 | 0.00 | 40 | 1006.3 |
| 20260509021529 | 58 | 224 | 1.0 | 4.0 | 0.00 | 0.00 | 0.00 | 37 | 1006.3 |
| 20260509020028 | 59 | 225 | 3.0 | 5.0 | 0.00 | 0.00 | 0.00 | 34 | 1006.2 |
| 20260509014528 | 59 | 227 | 3.0 | 7.0 | 0.00 | 0.00 | 0.00 | 34 | 1006.2 |
| 20260509013027 | 59 | 227 | 2.0 | 5.0 | 0.00 | 0.00 | 0.00 | 34 | 1006.1 |
| 20260509011526 | 60 | 229 | 3.0 | 5.0 | 0.00 | 0.00 | 0.00 | 33 | 1006.1 |
| 20260509010032 | 60 | 229 | 2.0 | 6.0 | 0.00 | 0.00 | 0.00 | 33 | 1006.0 |
| 20260509004534 | 61 | 232 | 5.0 | 8.0 | 0.00 | 0.00 | 0.00 | 31 | 1006.1 |
| 20260509003024 | 61 | 226 | 5.0 | 7.0 | 0.00 | 0.00 | 0.00 | 30 | 1005.9 |
| 20260509001526 | 62 | 244 | 5.0 | 9.0 | 0.00 | 0.00 | 0.00 | 30 | 1005.9 |
| 20260509000023 | 62 | 238 | 5.0 | 10.0 | 0.00 | 0.00 | 0.00 | 30 | 1005.8 |
| 20260508234526 | 62 | 226 | 5.0 | 7.0 | 0.00 | 0.00 | 0.00 | 29 | 1005.8 |
| 20260508233021 | 62 | 259 | 4.0 | 9.0 | 0.00 | 0.00 | 0.00 | 30 | 1005.9 |
| 20260508231520 | 62 | 243 | 2.0 | 10.0 | 0.00 | 0.00 | 0.00 | 29 | 1006.0 |
| 20260508230019 | 63 | 246 | 6.0 | 10.0 | 0.00 | 0.00 | 0.00 | 28 | 1006.1 |
| 20260508224522 | 63 | 223 | 8.0 | 13.0 | 0.00 | 0.00 | 0.00 | 29 | 1006.2 |
| 20260508223020 | 63 | 237 | 4.0 | 10.0 | 0.00 | 0.00 | 0.00 | 30 | 1006.2 |
| 20260508221516 | 62 | 246 | 5.0 | 11.0 | 0.00 | 0.00 | 0.00 | 30 | 1006.4 |
| 20260508220015 | 63 | 239 | 9.0 | 18.0 | 0.00 | 0.00 | 0.00 | 27 | 1006.4 |
| 20260508214521 | 63 | 216 | 6.0 | 14.0 | 0.00 | 0.00 | 0.00 | 30 | 1006.3 |
| 20260508213016 | 63 | 238 | 6.0 | 12.0 | 0.00 | 0.00 | 0.00 | 29 | 1006.3 |
| 20260508211511 | 63 | 284 | 7.0 | 17.0 | 0.00 | 0.00 | 0.00 | 30 | 1006.5 |
| 20260508210010 | 63 | 241 | 4.0 | 14.0 | 0.00 | 0.00 | 0.00 | 30 | 1006.5 |
| 20260508204508 | 62 | 273 | 8.0 | 17.0 | 0.00 | 0.00 | 0.00 | 28 | 1006.8 |
| 20260508203013 | 63 | 259 | 9.0 | 17.0 | 0.00 | 0.00 | 0.00 | 29 | 1007.0 |
| 20260508201509 | 62 | 217 | 7.0 | 15.0 | 0.00 | 0.00 | 0.00 | 28 | 1007.3 |
| 20260508200002 | 63 | 261 | 10.0 | 15.0 | 0.00 | 0.00 | 0.00 | 30 | 1007.4 |
| 20260508194559 | 62 | 275 | 8.0 | 18.0 | 0.00 | 0.00 | 0.00 | 30 | 1007.6 |
| 20260508193113 | 61 | 229 | 4.0 | 11.0 | 0.00 | 0.00 | 0.00 | 29 | 1007.9 |
| 20260508191559 | 62 | 265 | 6.0 | 14.0 | 0.00 | 0.00 | 0.00 | 29 | 1008.1 |
| 20260508190106 | 60 | 244 | 6.0 | 17.0 | 0.00 | 0.00 | 0.00 | 29 | 1008.2 |
| 20260508184557 | 61 | 229 | 6.0 | 14.0 | 0.00 | 0.00 | 0.00 | 32 | 1008.5 |
| 20260508183109 | 61 | 248 | 9.0 | 13.0 | 0.00 | 0.00 | 0.00 | 29 | 1008.6 |
| 20260508181548 | 60 | 218 | 6.0 | 11.0 | 0.00 | 0.00 | 0.00 | 31 | 1008.7 |
| 20260508180056 | 60 | 277 | 5.0 | 13.0 | 0.00 | 0.00 | 0.00 | 32 | 1009.0 |
| 20260508174558 | 59 | 288 | 3.0 | 12.0 | 0.00 | 0.00 | 0.00 | 33 | 1009.2 |
| 20260508173037 | 59 | 259 | 9.0 | 15.0 | 0.00 | 0.00 | 0.00 | 33 | 1009.4 |
| 20260508171535 | 58 | 244 | 6.0 | 15.0 | 0.00 | 0.00 | 0.00 | 35 | 1009.6 |
| 20260508170037 | 58 | 201 | 7.0 | 17.0 | 0.00 | 0.00 | 0.00 | 34 | 1009.9 |
| 20260508164537 | 57 | 225 | 2.0 | 15.0 | 0.00 | 0.00 | 0.00 | 36 | 1010.1 |
| 20260508163031 | 57 | 235 | 8.0 | 16.0 | 0.00 | 0.00 | 0.00 | 34 | 1010.3 |
| 20260508161526 | 56 | 219 | 6.0 | 11.0 | 0.00 | 0.00 | 0.00 | 36 | 1010.4 |
| 20260508160024 | 56 | 212 | 7.0 | 14.0 | 0.00 | 0.00 | 0.00 | 38 | 1010.5 |
| 20260508154521 | 55 | 264 | 2.0 | 14.0 | 0.00 | 0.00 | 0.00 | 42 | 1010.6 |
| 20260508153119 | 55 | 217 | 6.0 | 12.0 | 0.00 | 0.00 | 0.00 | 41 | 1010.7 |
| 20260508151517 | 55 | 276 | 9.0 | 14.0 | 0.00 | 0.00 | 0.00 | 43 | 1010.9 |
| 20260508150015 | 54 | 240 | 7.0 | 14.0 | 0.00 | 0.00 | 0.00 | 44 | 1011.0 |
| 20260508144518 | 53 | 261 | 5.0 | 11.0 | 0.00 | 0.00 | 0.00 | 48 | 1011.1 |
| 20260508143009 | 52 | 269 | 6.0 | 13.0 | 0.00 | 0.00 | 0.00 | 52 | 1011.2 |
| 20260508141510 | 52 | 234 | 7.0 | 12.0 | 0.00 | 0.00 | 0.00 | 55 | 1011.3 |
| 20260508140007 | 51 | 228 | 7.0 | 11.0 | 0.00 | 0.00 | 0.00 | 58 | 1011.3 |
| 20260508134600 | 50 | 227 | 6.0 | 11.0 | 0.00 | 0.00 | 0.00 | 58 | 1011.3 |
| 20260508133058 | 49 | 216 | 5.0 | 9.0 | 0.00 | 0.00 | 0.00 | 61 | 1011.4 |
| 20260508131606 | 48 | 202 | 3.0 | 8.0 | 0.00 | 0.00 | 0.00 | 63 | 1011.5 |
| 20260508130051 | 48 | 198 | 3.0 | 11.0 | 0.00 | 0.00 | 0.00 | 67 | 1011.4 |
| 20260508124548 | 46 | 234 | 7.0 | 10.0 | 0.00 | 0.00 | 0.00 | 70 | 1011.5 |
| 20260508123105 | 45 | 227 | 3.0 | 7.0 | 0.00 | 0.00 | 0.00 | 78 | 1011.4 |
| 20260508121550 | 43 | 217 | 2.0 | 5.0 | 0.00 | 0.00 | 0.00 | 83 | 1011.4 |
| 20260508120104 | 42 | 218 | 4.0 | 7.0 | 0.00 | 0.00 | 0.00 | 86 | 1011.2 |
| 20260508114556 | 40 | 207 | 2.0 | 4.0 | 0.00 | 0.00 | 0.00 | 88 | 1011.0 |
| 20260508113048 | 39 | 208 | 1.0 | 3.0 | 0.00 | 0.00 | 0.00 | 89 | 1010.9 |
| 20260508111545 | 37 | 209 | 1.0 | 3.0 | 0.00 | 0.00 | 0.00 | 89 | 1010.9 |
| 20260508110041 | 36 | 209 | 2.0 | 4.0 | 0.00 | 0.00 | 0.00 | 87 | 1011.0 |
| 20260508104542 | 36 | 240 | 0.0 | 0.0 | 0.00 | 0.00 | 0.00 | 85 | 1010.9 |
| 20260508103052 | 37 | 240 | 0.0 | 2.0 | 0.00 | 0.00 | 0.00 | 82 | 1011.0 |
| 20260508101533 | 39 | 240 | 0.0 | 3.0 | 0.00 | 0.00 | 0.00 | 82 | 1010.9 |
| 20260508100032 | 39 | 240 | 2.0 | 4.0 | 0.00 | 0.00 | 0.00 | 83 | 1011.0 |
| 20260508094530 | 39 | 242 | 1.0 | 4.0 | 0.00 | 0.00 | 0.00 | 84 | 1011.0 |
| 20260508093037 | 39 | 238 | 1.0 | 2.0 | 0.00 | 0.00 | 0.00 | 83 | 1011.0 |
| 20260508091532 | 40 | 238 | 2.0 | 4.0 | 0.00 | 0.00 | 0.00 | 81 | 1011.1 |
| 20260508090023 | 40 | 238 | 3.0 | 5.0 | 0.00 | 0.00 | 0.00 | 81 | 1011.1 |
| 20260508084520 | 41 | 239 | 3.0 | 5.0 | 0.00 | 0.00 | 0.00 | 80 | 1011.1 |
| 20260508083016 | 41 | 240 | 2.0 | 3.0 | 0.00 | 0.00 | 0.00 | 80 | 1011.1 |
| 20260508081516 | 41 | 240 | 1.0 | 3.0 | 0.00 | 0.00 | 0.00 | 79 | 1011.1 |
| 20260508080013 | 42 | 240 | 2.0 | 4.0 | 0.00 | 0.00 | 0.00 | 79 | 1011.3 |
| 20260508074519 | 42 | 240 | 2.0 | 4.0 | 0.00 | 0.00 | 0.00 | 79 | 1011.2 |
| 20260508073012 | 42 | 240 | 2.0 | 3.0 | 0.00 | 0.00 | 0.00 | 79 | 1011.3 |
| 20260508071514 | 43 | 240 | 2.0 | 4.0 | 0.00 | 0.00 | 0.00 | 78 | 1011.3 |
| 20260508070005 | 44 | 240 | 2.0 | 5.0 | 0.00 | 0.00 | 0.00 | 77 | 1011.4 |
| 20260508064502 | 44 | 240 | 2.0 | 5.0 | 0.00 | 0.00 | 0.00 | 75 | 1011.5 |
| 20260508063107 | 45 | 236 | 3.0 | 8.0 | 0.00 | 0.00 | 0.00 | 74 | 1011.4 |
| 20260508061557 | 45 | 233 | 3.0 | 5.0 | 0.00 | 0.00 | 0.00 | 74 | 1011.3 |
| 20260508060055 | 45 | 233 | 2.0 | 5.0 | 0.00 | 0.00 | 0.00 | 70 | 1011.2 |
| 20260508054554 | 46 | 232 | 3.0 | 6.0 | 0.00 | 0.00 | 0.00 | 70 | 1011.2 |
| 20260508053104 | 45 | 233 | 2.0 | 6.0 | 0.00 | 0.00 | 0.00 | 69 | 1011.4 |
| 20260508051552 | 45 | 232 | 3.0 | 6.0 | 0.00 | 0.00 | 0.00 | 70 | 1011.5 |
| 20260508050051 | 45 | 248 | 2.0 | 5.0 | 0.00 | 0.00 | 0.00 | 70 | 1011.5 |
| 20260508044547 | 46 | 248 | 3.0 | 8.0 | 0.00 | 0.00 | 0.00 | 68 | 1011.4 |